Welcome to Des Moines Iowa Weather. I am an independent private personal weather station on the Northwest Side of Des Moines, Iowa. Just East of Windsor Heights and just West of Glendale . This site is also mobile friendly.

There are no active watches, warnings or advisories


Visit our other weather sites:

Historical Data

Weather Station Setup



Weather Underground History page Text

Daily Summary for March 27, 2017 Units:  English    Metric   Both
« Previous Day
Next Day »
Daily Weekly Monthly Yearly Custom
  High: Low: Average:
Temperature: 50.3 °F 41.3 °F 45.5 °F
Dew Point: 44.0 °F 40.0 °F 42.4 °F
Humidity: 96 % 79 % 89 %
Wind Speed: 8.0 mph 0.0 mph 1.3 mph
Wind Gust: 10.0 mph - -
Wind:- - South
Pressure: 30.01 in 29.91 in -
Precipitation: 0.01 in    
Historical Graphs
 
 
Tabular Data for March 27, 2017
Time Temperature Dew Point Pressure Wind Wind Speed Wind Gust Humidity Rainfall Rate (Hourly)
00:06 44.3 °F 43.0 °F 29.94 in Calm     95 % 0.00 in
00:21 44.2 °F 43.0 °F 29.93 in Calm     95 % 0.00 in
00:36 44.2 °F 43.0 °F 29.93 in Calm   4.0 mph 96 % 0.00 in
00:51 44.2 °F 43.0 °F 29.93 in Calm     96 % 0.00 in
01:06 44.2 °F 43.0 °F 29.93 in Calm   3.0 mph 96 % 0.00 in
01:21 44.1 °F 43.0 °F 29.92 in NNW 2.0 mph 3.0 mph 96 % 0.00 in
01:36 44.1 °F 43.0 °F 29.92 in NNE 2.0 mph 4.0 mph 96 % 0.00 in
01:51 44.1 °F 43.0 °F 29.92 in Calm     96 % 0.00 in
02:06 44.0 °F 43.0 °F 29.93 in Calm   3.0 mph 96 % 0.00 in
02:21 44.0 °F 43.0 °F 29.93 in Calm     96 % 0.00 in
02:36 43.9 °F 43.0 °F 29.93 in Calm     96 % 0.00 in
02:51 43.9 °F 43.0 °F 29.93 in Calm     96 % 0.00 in
03:06 43.9 °F 43.0 °F 29.92 in Calm     96 % 0.00 in
03:21 43.7 °F 43.0 °F 29.93 in Calm   2.0 mph 96 % 0.00 in
03:36 43.5 °F 43.0 °F 29.92 in NNW 4.0 mph 4.0 mph 96 % 0.00 in
03:51 43.3 °F 42.0 °F 29.92 in North 1.0 mph 5.0 mph 96 % 0.01 in
04:06 43.1 °F 42.0 °F 29.91 in Calm   4.0 mph 96 % 0.01 in
04:21 42.8 °F 42.0 °F 29.91 in NNW 2.0 mph 5.0 mph 96 % 0.01 in
04:36 42.6 °F 42.0 °F 29.91 in Calm   5.0 mph 96 % 0.01 in
04:51 42.4 °F 41.0 °F 29.92 in Calm   4.0 mph 96 % 0.00 in
05:06 42.3 °F 41.0 °F 29.93 in Calm   5.0 mph 96 % 0.00 in
05:21 42.1 °F 41.0 °F 29.93 in Calm   4.0 mph 96 % 0.00 in
05:36 42.2 °F 41.0 °F 29.94 in Calm   4.0 mph 96 % 0.00 in
05:51 42.2 °F 41.0 °F 29.94 in Calm   4.0 mph 96 % 0.00 in
06:06 42.1 °F 41.0 °F 29.93 in Calm   8.0 mph 96 % 0.00 in
06:21 42.0 °F 41.0 °F 29.93 in Calm   5.0 mph 96 % 0.00 in
06:36 41.9 °F 41.0 °F 29.93 in Calm   6.0 mph 96 % 0.00 in
06:51 41.7 °F 41.0 °F 29.93 in NNE 8.0 mph 8.0 mph 96 % 0.00 in
07:06 41.4 °F 40.0 °F 29.93 in North 1.0 mph 6.0 mph 95 % 0.00 in
07:21 41.3 °F 40.0 °F 29.93 in NNW 2.0 mph 5.0 mph 95 % 0.00 in
07:36 41.3 °F 40.0 °F 29.94 in Calm   7.0 mph 95 % 0.00 in
07:51 41.4 °F 40.0 °F 29.94 in North 1.0 mph 5.0 mph 95 % 0.00 in
08:06 41.5 °F 40.0 °F 29.94 in Calm   5.0 mph 95 % 0.00 in
08:22 41.6 °F 40.0 °F 29.94 in North 1.0 mph 4.0 mph 95 % 0.00 in
08:36 41.7 °F 40.0 °F 29.93 in NE 3.0 mph 6.0 mph 95 % 0.00 in
08:52 42.0 °F 41.0 °F 29.93 in Calm   3.0 mph 95 % 0.00 in
09:07 42.2 °F 41.0 °F 29.93 in Calm   6.0 mph 95 % 0.00 in
09:22 42.6 °F 41.0 °F 29.93 in NE 4.0 mph 5.0 mph 95 % 0.00 in
09:37 43.0 °F 42.0 °F 29.93 in ENE 2.0 mph 6.0 mph 95 % 0.00 in
09:52 43.5 °F 42.0 °F 29.93 in Calm   6.0 mph 94 % 0.00 in
10:07 44.0 °F 42.0 °F 29.93 in East 7.0 mph 9.0 mph 93 % 0.00 in
10:22 44.2 °F 42.0 °F 29.93 in NNE 5.0 mph 9.0 mph 93 % 0.00 in
10:37 44.6 °F 43.0 °F 29.94 in NE 4.0 mph 6.0 mph 92 % 0.00 in
10:52 45.0 °F 43.0 °F 29.95 in NNE 4.0 mph 7.0 mph 91 % 0.00 in
11:07 45.1 °F 42.0 °F 29.96 in NW 7.0 mph 7.0 mph 90 % 0.00 in
11:22 45.3 °F 43.0 °F 29.96 in Calm   5.0 mph 90 % 0.00 in
11:37 45.4 °F 43.0 °F 29.96 in NE 1.0 mph 5.0 mph 90 % 0.00 in
11:52 45.5 °F 43.0 °F 29.97 in Calm   3.0 mph 89 % 0.00 in
12:07 45.6 °F 43.0 °F 29.97 in Calm   6.0 mph 89 % 0.00 in
12:22 45.6 °F 43.0 °F 29.97 in North 3.0 mph 6.0 mph 89 % 0.00 in
12:37 45.7 °F 43.0 °F 29.97 in NNW 3.0 mph 5.0 mph 89 % 0.00 in
12:52 45.9 °F 43.0 °F 29.96 in Calm   4.0 mph 89 % 0.00 in
13:07 46.1 °F 43.0 °F 29.96 in NNW 2.0 mph 4.0 mph 89 % 0.00 in
13:22 46.5 °F 43.0 °F 29.96 in NW 5.0 mph 5.0 mph 88 % 0.00 in
13:37 46.7 °F 43.0 °F 29.96 in Calm   9.0 mph 88 % 0.00 in
13:52 46.6 °F 43.0 °F 29.96 in North 4.0 mph 7.0 mph 87 % 0.00 in
14:07 46.7 °F 43.0 °F 29.95 in Calm   5.0 mph 88 % 0.00 in
14:22 47.0 °F 43.0 °F 29.95 in East 1.0 mph 7.0 mph 87 % 0.00 in
14:37 47.4 °F 43.0 °F 29.95 in NW 3.0 mph 5.0 mph 86 % 0.00 in
14:53 47.8 °F 44.0 °F 29.95 in Calm   6.0 mph 85 % 0.00 in
15:07 48.0 °F 43.0 °F 29.95 in NW 4.0 mph 8.0 mph 84 % 0.00 in
15:22 48.2 °F 44.0 °F 29.95 in NNW 3.0 mph 10.0 mph 84 % 0.00 in
15:37 48.3 °F 43.0 °F 29.95 in NW 1.0 mph 9.0 mph 83 % 0.00 in
15:52 48.5 °F 44.0 °F 29.95 in NE 2.0 mph 8.0 mph 83 % 0.00 in
16:07 48.9 °F 44.0 °F 29.94 in NNE 4.0 mph 5.0 mph 83 % 0.00 in
16:22 49.4 °F 44.0 °F 29.94 in NNW 2.0 mph 8.0 mph 82 % 0.00 in
16:38 49.7 °F 44.0 °F 29.94 in North 2.0 mph 6.0 mph 81 % 0.00 in
16:53 49.7 °F 44.0 °F 29.93 in NNW 4.0 mph 6.0 mph 81 % 0.00 in
17:08 49.7 °F 44.0 °F 29.93 in NNW 3.0 mph 3.0 mph 81 % 0.00 in
17:23 49.9 °F 44.0 °F 29.92 in Calm   4.0 mph 80 % 0.00 in
17:38 50.2 °F 44.0 °F 29.92 in Calm   4.0 mph 80 % 0.00 in
17:53 50.3 °F 44.0 °F 29.93 in Calm   4.0 mph 80 % 0.00 in
18:08 50.3 °F 44.0 °F 29.93 in NNE 3.0 mph 5.0 mph 80 % 0.00 in
18:23 50.0 °F 44.0 °F 29.94 in Calm   5.0 mph 80 % 0.00 in
18:38 49.9 °F 44.0 °F 29.94 in NNW 3.0 mph 6.0 mph 80 % 0.00 in
18:53 49.8 °F 44.0 °F 29.95 in North 3.0 mph 3.0 mph 80 % 0.00 in
19:24 49.3 °F 43.0 °F 29.95 in Calm   4.0 mph 79 % 0.00 in
19:38 49.2 °F 43.0 °F 29.95 in Calm   3.0 mph 79 % 0.00 in
20:08 48.6 °F 43.0 °F 29.96 in East 2.0 mph 8.0 mph 80 % 0.00 in
20:23 48.0 °F 42.0 °F 29.97 in NE 3.0 mph 6.0 mph 81 % 0.00 in
20:38 47.6 °F 42.0 °F 29.98 in Calm   5.0 mph 81 % 0.00 in
20:53 47.4 °F 42.0 °F 29.99 in NW 1.0 mph 4.0 mph 82 % 0.00 in
21:08 47.2 °F 42.0 °F 29.99 in Calm   6.0 mph 82 % 0.00 in
21:23 47.1 °F 42.0 °F 30.00 in Calm   8.0 mph 82 % 0.00 in
21:38 47.1 °F 42.0 °F 30.00 in Calm   4.0 mph 83 % 0.00 in
21:53 47.0 °F 42.0 °F 30.00 in Calm     83 % 0.00 in
22:08 46.9 °F 42.0 °F 30.00 in Calm     83 % 0.00 in
22:23 46.9 °F 42.0 °F 30.01 in Calm   3.0 mph 83 % 0.00 in
22:38 46.9 °F 42.0 °F 30.01 in Calm     84 % 0.00 in
22:53 46.8 °F 42.0 °F 30.01 in Calm     84 % 0.00 in
23:08 46.8 °F 42.0 °F 30.00 in Calm   3.0 mph 84 % 0.00 in
23:23 46.8 °F 43.0 °F 30.01 in Calm     85 % 0.00 in
23:38 46.6 °F 42.0 °F 30.00 in Calm   2.0 mph 85 % 0.00 in
23:53 46.5 °F 43.0 °F 30.01 in Calm     86 % 0.00 in
Des Moines Weather and Climate
Compliments of Weather Underground - 3 mb

Script developed by  Jim McMurry - jmcmurry@mwt.net Adapted for the template by  Wim van der Kuil - Leuven-Template.eu

You find our weather info also at:

Weather Underground

Equipment we use:

Weather-station
Davis VP2 Plus

Weather-program
Davis Weatherlink.Com

Weather-server
iMac (Retina 4K, 21.5-inch, Late 2015)

Provider
Hostmonster.com

Davis VP2 Plus

Davis Weatherlink.Com

iMac (Retina 4K, 21.5-inch, Late 2015)

Hostmonster.com